Location: Kellogg
(38.0159°N, 90.0546°W)
Time: 23:25:40
(UTC+00:00)

Vanguard 2 - Pass Details

Date: 25 September 2024
Orbit: 552 x 2910 km, 32.9° (Epoch: 09 October)

Event Time Altitude Azimuth Distance (km) Brightness Sun altitude
Rises 04:36:23 0° 214° (SW) 3,492 - -49.2°
Reaches altitude 10° 04:40:30 10° 189° (S) 2,195 - -49.6°
Maximum altitude 04:42:51 13° 159° (SSE) 1,811 - -49.8°
Drops below altitude 10° 04:44:59 10° 129° (SE) 1,919 - -50.0°
Sets 04:48:06 0° 100° (E) 2,723 - -50.2°
